CW8226 Weather Reports


time (UTC)temp
C
wind
direction
speed
KPH
gust
KPH
rain 1hr
cm
rain 24hr
cm
rain mn
cm
humidity
%
barometer
mb
20260503192814 17 193 1.6 11.3 0.00 0.00 0.00 64 1014.8
20260503192310 17 182 1.6 3.2 0.00 0.00 0.00 67 1014.9
20260503191806 17 192 3.2 8.0 0.00 0.00 0.00 66 1014.9
20260503191304 17 186 3.2 8.0 0.00 0.00 0.00 65 1015.0
20260503190800 17 181 1.6 4.8 0.00 0.00 0.00 65 1014.8
20260503190257 17 174 1.6 4.8 0.00 0.00 0.00 65 1014.8
20260503185754 17 181 1.6 4.8 0.00 0.00 0.00 65 1015.0
20260503185250 17 170 1.6 4.8 0.00 0.00 0.00 64 1014.9
20260503184744 17 178 3.2 3.2 0.00 0.00 0.00 65 1014.8
20260503184241 17 157 1.6 3.2 0.00 0.00 0.00 66 1014.8
20260503183737 17 186 3.2 8.0 0.00 0.00 0.00 65 1014.9
20260503183234 17 164 1.6 4.8 0.00 0.00 0.00 67 1014.9
20260503182727 17 177 1.6 4.8 0.00 0.00 0.00 67 1015.1
20260503182225 17 184 6.4 8.0 0.00 0.00 0.00 65 1015.0
20260503181722 17 177 1.6 11.3 0.00 0.00 0.00 65 1014.7
20260503181218 17 183 1.6 8.0 0.00 0.00 0.00 67 1014.7
20260503180714 17 159 4.8 4.8 0.00 0.00 0.00 65 1015.0
20260503180213 17 175 0.0 4.8 0.00 0.00 0.00 66 1015.0
20260503175709 17 182 1.6 3.2 0.00 0.00 0.00 67 1015.0
20260503175208 17 176 0.0 3.2 0.00 0.00 0.00 69 1015.0
20260503174703 16 181 3.2 8.0 0.00 0.00 0.00 69 1014.8
20260503174201 17 176 0.0 4.8 0.00 0.00 0.00 69 1015.0
20260503173656 16 182 1.6 4.8 0.00 0.00 0.00 72 1014.8
20260503173152 16 182 4.8 4.8 0.00 0.00 0.00 71 1014.8
20260503172649 16 156 1.6 4.8 0.00 0.00 0.00 73 1014.8
20260503172146 15 169 3.2 4.8 0.00 0.00 0.00 76 1015.1
20260503171643 15 164 0.0 1.6 0.00 0.00 0.00 78 1014.7
20260503171140 15 165 1.6 3.2 0.00 0.00 0.00 81 1015.0
20260503170637 15 164 1.6 3.2 0.00 0.00 0.00 83 1014.9
20260503170134 14 167 1.6 1.6 0.00 0.00 0.00 85 1015.0
20260503150525 13 164 1.6 1.6 0.00 0.00 0.00 88 1014.6
20260503131419 12 165 0.0 0.0 0.00 0.00 0.00 90 1013.3
20260503130915 12 164 0.0 0.0 0.00 0.00 0.00 90 1013.1
20260503130413 12 165 0.0 0.0 0.00 0.00 0.00 90 1013.0
20260503110812 12 165 0.0 0.0 0.00 0.00 0.00 85 1013.2
20260503110309 12 164 0.0 0.0 0.00 0.00 0.00 85 1013.2
20260503100235 12 165 0.0 0.0 0.00 0.00 0.00 85 1012.9
20260503090154 12 165 0.0 0.0 0.00 0.00 0.00 83 1013.2
20260503081629 12 165 0.0 1.6 0.00 0.00 0.00 83 1013.6
20260503081126 12 165 1.6 3.2 0.00 0.00 0.00 83 1013.8
20260503080622 12 165 0.0 0.0 0.00 0.00 0.00 83 1013.7
20260503080119 12 167 1.6 1.6 0.00 0.00 0.00 83 1013.9
20260503072556 12 167 0.0 0.0 0.00 0.00 0.00 82 1014.1
20260503072053 12 165 1.6 3.2 0.00 0.00 0.00 82 1014.0
20260503071550 12 166 0.0 3.2 0.00 0.00 0.00 82 1014.0
20260503071047 12 165 0.0 1.6 0.00 0.00 0.00 82 1014.0
20260503070543 12 166 0.0 1.6 0.00 0.00 0.00 82 1013.8
20260503055003 13 222 0.0 3.2 0.00 0.00 0.00 82 1014.4
20260503054458 13 186 1.6 1.6 0.00 0.00 0.00 82 1014.3
20260503053956 13 238 1.6 3.2 0.00 0.00 0.00 82 1014.3
20260503053454 12 227 1.6 3.2 0.00 0.00 0.00 82 1014.2
20260503052950 13 211 1.6 3.2 0.00 0.00 0.00 82 1014.4
20260503052448 13 193 0.0 1.6 0.00 0.00 0.00 83 1014.4
20260503051944 12 202 1.6 3.2 0.00 0.00 0.00 83 1014.3
20260503051440 12 279 4.8 8.0 0.00 0.00 0.00 83 1014.3
20260503050937 12 199 0.0 1.6 0.00 0.00 0.00 83 1014.1
20260503050433 12 195 0.0 1.6 0.00 0.00 0.00 84 1014.3
20260503045931 12 198 0.0 3.2 0.00 0.00 0.00 84 1014.3
20260503045428 13 250 1.6 4.8 0.00 0.00 0.00 84 1014.3
20260503044925 13 197 0.0 1.6 0.00 0.00 0.00 84 1014.2
20260503044422 12 258 3.2 3.2 0.00 0.00 0.00 83 1014.1
20260503043919 12 354 4.8 4.8 0.00 0.00 0.00 83 1014.1
20260503043416 13 287 6.4 9.7 0.00 0.00 0.00 82 1014.1
20260503042912 13 239 1.6 8.0 0.00 0.00 0.00 82 1013.9
20260503042409 13 198 0.0 4.8 0.00 0.00 0.00 81 1014.0
20260503041905 13 200 1.6 8.0 0.00 0.00 0.00 81 1014.1
20260503041402 13 247 1.6 4.8 0.00 0.00 0.00 80 1014.1
20260503040859 13 221 3.2 11.3 0.00 0.00 0.00 80 1013.9
20260503040357 13 266 0.0 8.0 0.00 0.00 0.00 80 1013.7
20260503035854 13 224 1.6 3.2 0.00 0.00 0.00 81 1013.9
20260503035351 13 192 3.2 8.0 0.00 0.00 0.00 81 1013.8
20260503034848 13 335 6.4 8.0 0.00 0.00 0.00 81 1013.7
20260503034346 13 208 0.0 3.2 0.00 0.00 0.00 81 1013.6
20260503033843 13 323 1.6 3.2 0.00 0.00 0.00 80 1013.5
20260503033340 13 254 0.0 3.2 0.00 0.00 0.00 80 1013.6
20260503032838 13 213 1.6 1.6 0.00 0.00 0.00 80 1013.6
20260503032337 13 254 4.8 4.8 0.00 0.00 0.00 80 1013.6
20260503031834 13 199 0.0 3.2 0.00 0.00 0.00 80 1013.3
20260503031331 13 290 3.2 4.8 0.00 0.00 0.00 80 1013.5
20260503030827 13 215 1.6 4.8 0.00 0.00 0.00 80 1013.4
20260503030324 13 209 3.2 3.2 0.00 0.00 0.00 80 1013.3
20260503025821 13 318 4.8 8.0 0.00 0.00 0.00 79 1013.3
20260503025318 13 237 1.6 3.2 0.00 0.00 0.00 78 1013.1
20260503024815 14 273 1.6 3.2 0.00 0.00 0.00 78 1013.2
20260503024312 14 195 0.0 1.6 0.00 0.00 0.00 77 1012.9
20260503023809 14 200 1.6 3.2 0.00 0.00 0.00 77 1012.9
20260503023306 15 192 1.6 3.2 0.00 0.00 0.00 76 1012.9
20260503022802 15 255 3.2 4.8 0.00 0.00 0.00 75 1012.8
20260503022257 15 244 0.0 1.6 0.00 0.00 0.00 75 1012.8
20260503021754 15 192 0.0 1.6 0.00 0.00 0.00 75 1012.9
20260503021250 15 193 0.0 1.6 0.00 0.00 0.00 75 1012.9
20260503020748 15 198 0.0 3.2 0.00 0.00 0.00 76 1012.9
20260503020246 15 235 1.6 4.8 0.00 0.00 0.00 76 1012.7
20260503015741 15 227 1.6 3.2 0.00 0.00 0.00 75 1012.8
20260503015238 15 210 3.2 4.8 0.00 0.00 0.00 75 1012.9
20260503014734 15 197 1.6 9.7 0.00 0.00 0.00 74 1012.7
20260503014233 16 226 1.6 4.8 0.00 0.00 0.00 73 1013.0
20260503013729 16 257 1.6 3.2 0.00 0.00 0.00 73 1012.6
20260503013227 16 192 0.0 9.7 0.00 0.00 0.00 73 1012.9
20260503012724 16 198 0.0 4.8 0.00 0.00 0.00 72 1012.9
20260503012221 16 352 1.6 3.2 0.00 0.00 0.00 72 1013.0
20260503011718 16 237 1.6 11.3 0.00 0.00 0.00 72 1012.9
20260503011215 17 337 3.2 4.8 0.00 0.00 0.00 71 1013.0
20260503010711 17 197 0.0 3.2 0.00 0.00 0.00 71 1012.5
20260503010208 17 191 1.6 4.8 0.00 0.00 0.00 71 1013.1
20260503005706 17 241 1.6 4.8 0.00 0.00 0.00 72 1012.8
20260503005203 17 216 3.2 4.8 0.00 0.00 0.00 71 1012.8
20260503004658 17 196 0.0 8.0 0.00 0.00 0.00 70 1012.9
20260503004157 17 144 1.6 8.0 0.00 0.00 0.00 70 1012.9
20260503003654 18 76 3.2 12.9 0.00 0.00 0.00 69 1012.7
20260503003151 18 219 6.4 8.0 0.00 0.00 0.00 67 1013.1
20260503002647 18 96 3.2 4.8 0.00 0.00 0.00 70 1013.1
20260503002144 18 219 1.6 1.6 0.00 0.00 0.00 68 1012.9
20260503001640 18 331 3.2 4.8 0.00 0.00 0.00 69 1013.0
20260503001137 18 193 1.6 3.2 0.00 0.00 0.00 69 1012.8
20260503000635 18 193 0.0 4.8 0.00 0.00 0.00 71 1013.0
20260503000132 18 246 4.8 4.8 0.00 0.00 0.00 67 1013.0
20260502235629 18 184 1.6 3.2 0.00 0.00 0.00 67 1012.9
20260502235127 18 267 1.6 3.2 0.00 0.00 0.00 69 1012.7
20260502234622 18 196 0.0 1.6 0.00 0.00 0.00 68 1012.9
20260502234120 18 246 1.6 9.7 0.00 0.00 0.00 67 1013.1
20260502233616 20 205 1.6 1.6 0.00 0.00 0.00 65 1013.1
20260502233113 20 195 0.0 1.6 0.00 0.00 0.00 65 1013.3
20260502232608 20 255 3.2 4.8 0.00 0.00 0.00 66 1013.2
20260502232106 19 193 1.6 3.2 0.00 0.00 0.00 68 1013.1
20260502231603 20 227 1.6 1.6 0.00 0.00 0.00 66 1013.5
20260502231101 19 218 1.6 8.0 0.00 0.00 0.00 68 1013.3
20260502230559 20 198 1.6 4.8 0.00 0.00 0.00 66 1013.3
20260502230057 20 248 1.6 3.2 0.00 0.00 0.00 67 1013.5
20260502225552 20 235 1.6 1.6 0.00 0.00 0.00 66 1013.4
20260502225050 19 204 1.6 3.2 0.00 0.00 0.00 67 1013.5
20260502224545 20 228 1.6 4.8 0.00 0.00 0.00 66 1013.7
20260502224043 19 271 1.6 8.0 0.00 0.00 0.00 68 1013.8
20260502223541 19 176 1.6 4.8 0.00 0.00 0.00 68 1013.7
20260502223039 19 267 3.2 4.8 0.00 0.00 0.00 68 1014.0
20260502222536 20 198 3.2 9.7 0.00 0.00 0.00 67 1013.8
20260502222032 20 200 1.6 9.7 0.00 0.00 0.00 67 1014.0
20260502221527 20 261 1.6 3.2 0.00 0.00 0.00 68 1014.3
20260502221025 19 237 0.0 4.8 0.00 0.00 0.00 69 1014.3
20260502220520 18 248 4.8 4.8 0.00 0.00 0.00 69 1014.6
20260502220018 18 223 3.2 3.2 0.00 0.00 0.00 69 1014.3
20260502215515 18 223 1.6 3.2 0.00 0.00 0.00 71 1014.4
20260502215012 18 289 3.2 4.8 0.00 0.00 0.00 70 1014.5
20260502214509 18 165 1.6 4.8 0.00 0.00 0.00 70 1014.7
20260502214006 18 208 1.6 8.0 0.00 0.00 0.00 72 1014.6
20260502213502 18 311 4.8 4.8 0.00 0.00 0.00 71 1014.5
20260502213001 18 304 1.6 4.8 0.00 0.00 0.00 71 1014.6
20260502212459 18 230 1.6 8.0 0.00 0.00 0.00 71 1014.7
20260502211956 18 192 0.0 8.0 0.00 0.00 0.00 71 1014.7
20260502211452 18 233 1.6 3.2 0.00 0.00 0.00 70 1014.7
20260502210950 17 230 1.6 8.0 0.00 0.00 0.00 72 1014.6
20260502210446 17 208 1.6 9.7 0.00 0.00 0.00 71 1014.9
20260502205943 18 342 3.2 8.0 0.00 0.00 0.00 71 1014.9
20260502205439 18 204 1.6 4.8 0.00 0.00 0.00 69 1015.1
20260502204937 18 199 0.0 3.2 0.00 0.00 0.00 69 1015.2
20260502204434 17 214 1.6 9.7 0.00 0.00 0.00 71 1014.8
20260502203932 18 251 6.4 9.7 0.00 0.00 0.00 70 1015.3
20260502203429 18 259 3.2 8.0 0.00 0.00 0.00 70 1015.3
20260502202924 17 215 3.2 9.7 0.00 0.00 0.00 73 1015.2
20260502202422 18 275 4.8 8.0 0.00 0.00 0.00 68 1015.4
20260502201920 18 269 4.8 9.7 0.00 0.00 0.00 69 1015.4
20260502201415 17 208 0.0 4.8 0.00 0.00 0.00 73 1015.5
20260502200913 17 181 3.2 8.0 0.00 0.00 0.00 73 1015.6
20260502200408 17 244 4.8 4.8 0.00 0.00 0.00 72 1015.7
20260502195906 17 270 3.2 9.7 0.00 0.00 0.00 74 1015.7
20260502195403 17 215 3.2 4.8 0.00 0.00 0.00 73 1015.7
20260502194859 16 198 4.8 11.3 0.00 0.00 0.00 74 1015.8
20260502194356 16 264 6.4 9.7 0.00 0.00 0.00 74 1015.8
20260502193852 16 289 1.6 9.7 0.00 0.00 0.00 74 1016.1
20260502193349 17 216 1.6 11.3 0.00 0.00 0.00 73 1015.8